Location: Cuiry
(49.3858°N, 3.7708°E)
Time: 09:47:11
(UTC+00:00)

IRAS Rocket - Pass Details

Date: 12 January 2026
Orbit: 846 x 875 km, 100.1° (Epoch: 19 February)

Event Time Altitude Azimuth Distance (km) Brightness Sun altitude
Rises 17:45:58 0° 140° (SE) 3,406 7.1 -15.0°
Reaches altitude 10° 17:48:24 10° 134° (SE) 2,477 6.3 -15.4°
Maximum altitude 17:53:35 45° 64° (ENE) 1,164 4.5 -16.2°
Drops below altitude 10° 17:58:49 10° 353° (N) 2,510 6.6 -17.1°
Sets 18:01:18 0° 348° (NNW) 3,456 7.4 -17.5°
